AEA4537 LEMD-LEAL

Flight info

Callsign AEA4537
Flight time N/A
Altitude 29000
Route NANDO L150 ASTRO
Aircraft B738/M-SDE2E3FGHIRWXY/LB1

Departure

Time 2026-05-01 12:00
Airport Adolfo Suárez Madrid–Barajas Airport (LEMD)

Arrival

Time N/A
Airport Alicante-Elche Miguel Hernández Airport (LEAL)
Time Latitude Longitude Altitude Speed Heading
2026-05-01 11:26 40.46996 -3.56853 1980 ft 0 kts 232°
2026-05-01 11:46 40.46997 -3.56852 1979 ft 1 kts 232°
2026-05-01 11:46 40.47007 -3.56835 1982 ft 3 kts 232°
2026-05-01 11:46 40.47019 -3.56814 1980 ft 3 kts 232°
2026-05-01 11:47 40.47030 -3.56797 1980 ft 3 kts 234°
2026-05-01 11:47 40.47038 -3.56776 1983 ft 3 kts 270°
2026-05-01 11:47 40.47033 -3.56755 1982 ft 3 kts 313°
2026-05-01 11:47 40.47021 -3.56742 1983 ft 1 kts 320°
2026-05-01 11:48 40.47018 -3.56738 1982 ft 0 kts 320°
2026-05-01 11:50 40.47042 -3.56765 1981 ft 10 kts 318°
2026-05-01 11:50 40.47107 -3.56843 1981 ft 14 kts 317°
2026-05-01 11:51 40.47181 -3.56913 1979 ft 13 kts 338°
2026-05-01 11:51 40.47269 -3.56921 1979 ft 13 kts 15°
2026-05-01 11:51 40.47344 -3.56865 1979 ft 12 kts 15°
2026-05-01 11:51 40.47421 -3.56913 1981 ft 14 kts 321°
2026-05-01 11:52 40.47515 -3.57007 1980 ft 20 kts 323°
2026-05-01 11:52 40.47648 -3.57139 1981 ft 26 kts 323°
2026-05-01 11:52 40.47787 -3.57281 1984 ft 24 kts 321°
2026-05-01 11:52 40.47915 -3.57411 1979 ft 23 kts 322°
2026-05-01 11:53 40.48039 -3.57538 1979 ft 22 kts 322°
2026-05-01 11:53 40.48159 -3.57661 1979 ft 22 kts 322°
2026-05-01 11:53 40.48276 -3.57782 1979 ft 21 kts 322°
2026-05-01 11:53 40.48393 -3.57891 1982 ft 20 kts 327°
2026-05-01 11:54 40.48511 -3.57990 1979 ft 20 kts 327°
2026-05-01 11:54 40.48589 -3.58047 1980 ft 19 kts 340°
2026-05-01 11:54 40.48720 -3.58059 1979 ft 19 kts
2026-05-01 11:54 40.48842 -3.58045 1982 ft 16 kts 43°
2026-05-01 11:55 40.48862 -3.57852 1979 ft 17 kts 88°
2026-05-01 11:55 40.48863 -3.57678 1979 ft 21 kts 97°
2026-05-01 11:55 40.48862 -3.57548 1979 ft 22 kts 90°
2026-05-01 11:55 40.48860 -3.57329 1979 ft 25 kts 90°
2026-05-01 11:56 40.48862 -3.57104 1979 ft 24 kts 89°
2026-05-01 11:56 40.48862 -3.56893 1979 ft 23 kts 90°
2026-05-01 11:56 40.48863 -3.56688 1979 ft 22 kts 89°
2026-05-01 11:56 40.48865 -3.56489 1979 ft 21 kts 90°
2026-05-01 11:57 40.48873 -3.56298 1981 ft 21 kts 62°
2026-05-01 11:57 40.49004 -3.56254 1979 ft 20 kts
2026-05-01 11:57 40.49142 -3.56251 1979 ft 20 kts
2026-05-01 11:57 40.49276 -3.56251 1981 ft 19 kts 360°
2026-05-01 11:58 40.49405 -3.56251 1981 ft 18 kts 360°
2026-05-01 11:58 40.49530 -3.56252 1979 ft 18 kts 359°
2026-05-01 11:58 40.49818 -3.56257 1979 ft 22 kts 359°
2026-05-01 11:59 40.49939 -3.56179 1980 ft 21 kts 77°
2026-05-01 11:59 40.49968 -3.55995 1981 ft 21 kts 62°
2026-05-01 11:59 40.50094 -3.55926 1979 ft 20 kts
2026-05-01 12:00 40.50736 -3.55930 1981 ft 111 kts 360°
2026-05-01 12:00 40.51744 -3.55934 1982 ft 181 kts 359°
2026-05-01 12:00 40.54657 -3.55898 3302 ft 224 kts 11°
2026-05-01 12:01 40.56101 -3.55212 4367 ft 212 kts 26°
2026-05-01 12:01 40.57316 -3.54581 5123 ft 220 kts 19°
2026-05-01 12:01 40.58828 -3.53979 5572 ft 231 kts 18°
2026-05-01 12:01 40.60253 -3.52940 5957 ft 241 kts 41°
2026-05-01 12:02 40.61538 -3.51485 6386 ft 250 kts 43°
2026-05-01 12:02 40.62868 -3.49968 6940 ft 255 kts 43°
2026-05-01 12:02 40.64217 -3.48439 7585 ft 258 kts 42°
2026-05-01 12:02 40.65587 -3.46893 8347 ft 260 kts 41°
2026-05-01 12:03 40.66967 -3.45342 9134 ft 262 kts 41°
2026-05-01 12:03 40.68370 -3.43770 9879 ft 267 kts 41°
2026-05-01 12:03 40.69798 -3.42169 10573 ft 270 kts 41°
2026-05-01 12:03 40.71238 -3.40557 11287 ft 272 kts 41°
2026-05-01 12:04 40.72664 -3.38947 11975 ft 275 kts 44°
2026-05-01 12:04 40.73726 -3.36860 12642 ft 276 kts 74°
2026-05-01 12:04 40.73910 -3.34364 13192 ft 280 kts 102°
2026-05-01 12:04 40.73146 -3.31955 13508 ft 291 kts 127°
2026-05-01 12:05 40.71920 -3.29781 14103 ft 297 kts 130°
2026-05-01 12:05 40.68831 -3.26300 15355 ft 298 kts 159°
2026-05-01 12:05 40.66898 -3.25254 15992 ft 302 kts 161°
2026-05-01 12:06 40.64926 -3.24247 16620 ft 306 kts 161°
2026-05-01 12:06 40.62925 -3.23231 17246 ft 310 kts 161°
2026-05-01 12:06 40.60907 -3.22194 17891 ft 313 kts 161°
2026-05-01 12:06 40.58855 -3.21130 18504 ft 318 kts 161°
2026-05-01 12:07 40.56789 -3.20049 19076 ft 321 kts 160°
2026-05-01 12:07 40.54711 -3.18957 19687 ft 322 kts 160°
2026-05-01 12:07 40.52618 -3.17856 20265 ft 325 kts 160°
2026-05-01 12:07 40.50517 -3.16749 20844 ft 327 kts 160°
2026-05-01 12:08 40.48389 -3.15628 21424 ft 330 kts 160°
2026-05-01 12:08 40.46249 -3.14502 21988 ft 332 kts 160°
2026-05-01 12:08 40.44126 -3.13386 22556 ft 335 kts 160°
2026-05-01 12:08 40.41957 -3.12247 23103 ft 338 kts 160°
2026-05-01 12:09 40.39788 -3.10887 23126 ft 354 kts 146°
2026-05-01 12:09 40.37840 -3.08784 23169 ft 370 kts 141°
2026-05-01 12:09 40.35869 -3.06499 23180 ft 384 kts 140°
2026-05-01 12:09 40.33865 -3.04152 23178 ft 398 kts 140°
2026-05-01 12:10 40.31764 -3.01707 23177 ft 411 kts 140°
2026-05-01 12:10 40.27341 -2.96629 23169 ft 433 kts 141°
2026-05-01 12:10 40.25039 -2.94010 23172 ft 442 kts 141°
2026-05-01 12:11 40.20375 -2.88718 23155 ft 442 kts 141°
2026-05-01 12:11 40.18048 -2.86083 23146 ft 441 kts 141°
2026-05-01 12:11 40.15728 -2.83458 23155 ft 440 kts 140°
2026-05-01 12:12 40.13643 -2.80533 23154 ft 442 kts 125°
2026-05-01 12:12 40.12298 -2.76920 23166 ft 445 kts 109°
2026-05-01 12:12 40.11418 -2.73049 23172 ft 445 kts 107°
2026-05-01 12:12 40.10582 -2.69153 23171 ft 445 kts 107°
2026-05-01 12:13 40.09750 -2.65264 23167 ft 445 kts 107°
2026-05-01 12:13 40.08915 -2.61428 23167 ft 445 kts 107°
2026-05-01 12:13 40.08052 -2.57536 23169 ft 445 kts 107°
2026-05-01 12:13 40.07176 -2.53641 23178 ft 445 kts 108°
2026-05-01 12:14 40.06295 -2.49764 23175 ft 445 kts 108°
2026-05-01 12:14 40.05410 -2.45884 23183 ft 445 kts 108°
2026-05-01 12:14 40.04525 -2.42011 23181 ft 445 kts 108°
2026-05-01 12:14 40.03639 -2.38143 23193 ft 445 kts 108°
2026-05-01 12:15 40.02764 -2.34321 23192 ft 445 kts 108°
2026-05-01 12:15 40.01874 -2.30442 23188 ft 446 kts 108°
2026-05-01 12:15 40.00983 -2.26561 23201 ft 445 kts 108°
2026-05-01 12:15 40.00089 -2.22673 23204 ft 446 kts 108°
2026-05-01 12:16 39.99196 -2.18800 23200 ft 446 kts 108°
2026-05-01 12:16 39.98178 -2.14993 23186 ft 444 kts 119°
2026-05-01 12:16 39.96410 -2.11741 23216 ft 439 kts 136°
2026-05-01 12:16 39.94049 -2.09248 23229 ft 436 kts 146°
2026-05-01 12:17 39.91566 -2.06987 23215 ft 436 kts 147°
2026-05-01 12:17 39.89095 -2.04773 23212 ft 437 kts 147°
2026-05-01 12:17 39.86592 -2.02531 23211 ft 437 kts 147°
2026-05-01 12:17 39.84086 -2.00270 23210 ft 438 kts 147°
2026-05-01 12:18 39.81590 -1.98002 23216 ft 438 kts 147°
2026-05-01 12:18 39.79094 -1.95723 23215 ft 438 kts 147°
2026-05-01 12:18 39.76600 -1.93439 23216 ft 438 kts 146°
2026-05-01 12:18 39.74109 -1.91156 23223 ft 438 kts 146°
2026-05-01 12:19 39.71641 -1.88894 23226 ft 438 kts 146°
2026-05-01 12:19 39.69147 -1.86610 23224 ft 438 kts 146°
2026-05-01 12:19 39.66651 -1.84326 23229 ft 438 kts 146°
2026-05-01 12:19 39.64160 -1.82051 23232 ft 439 kts 146°
2026-05-01 12:20 39.61660 -1.79768 23225 ft 439 kts 146°
2026-05-01 12:20 39.59161 -1.77489 23223 ft 439 kts 146°
2026-05-01 12:20 39.56663 -1.75213 23225 ft 438 kts 147°
2026-05-01 12:20 39.54163 -1.72937 23228 ft 438 kts 147°
2026-05-01 12:21 39.51664 -1.70665 23228 ft 438 kts 147°
2026-05-01 12:21 39.49172 -1.68400 23234 ft 438 kts 147°
2026-05-01 12:21 39.46738 -1.66190 23198 ft 426 kts 147°
2026-05-01 12:21 39.44347 -1.64018 23098 ft 411 kts 147°
2026-05-01 12:22 39.42018 -1.61906 22972 ft 406 kts 147°
2026-05-01 12:22 39.39713 -1.59819 22844 ft 405 kts 147°
2026-05-01 12:22 39.37398 -1.57726 22795 ft 404 kts 147°
2026-05-01 12:22 39.35107 -1.55656 22797 ft 406 kts 147°
2026-05-01 12:23 39.32774 -1.53550 22792 ft 406 kts 147°
2026-05-01 12:23 39.30455 -1.51458 22789 ft 406 kts 147°
2026-05-01 12:23 39.28142 -1.49372 22804 ft 406 kts 147°
2026-05-01 12:23 39.25817 -1.47277 22790 ft 407 kts 147°
2026-05-01 12:24 39.23497 -1.45188 22798 ft 407 kts 147°
2026-05-01 12:24 39.21200 -1.43121 22800 ft 408 kts 147°
2026-05-01 12:24 39.18872 -1.41028 22799 ft 408 kts 147°
2026-05-01 12:24 39.16542 -1.38935 22789 ft 407 kts 147°
2026-05-01 12:25 39.14219 -1.36850 22792 ft 407 kts 147°
2026-05-01 12:25 39.09572 -1.32684 22796 ft 405 kts 147°
2026-05-01 12:25 39.07251 -1.30605 22795 ft 405 kts 147°
2026-05-01 12:26 39.04966 -1.28560 22794 ft 405 kts 147°
2026-05-01 12:26 39.00341 -1.24395 22799 ft 405 kts 146°
2026-05-01 12:26 38.98054 -1.22276 22790 ft 406 kts 146°
2026-05-01 12:27 38.95769 -1.20147 22788 ft 406 kts 146°
2026-05-01 12:27 38.91202 -1.15898 22799 ft 407 kts 146°
2026-05-01 12:28 38.86604 -1.11642 22789 ft 407 kts 146°
2026-05-01 12:28 38.84300 -1.09515 22787 ft 407 kts 146°